Miscellaneous Local Product
Issued by NWS North Platte, NE

Home | Current Version | Previous Version | Text Only | Print | Product List | Glossary On
Versions: 1 2 3 4 5 6 7 8 9 10 11 12 13 14 15 16 17 18 19 20 21 22 23 24 25 26 27 28 29 30 31 32 33 34 35 36 37 38 39 40 41 42 43 44 45 46 47 48 49 50
000
AXUS43 KLBF 111210
MISLBF


WESTERN AND NORTH CENTRAL NEBRASKA HOURLY WEATHER ROUNDUP
NATIONAL WEATHER SERVICE NORTH PLATTE NE
600 AM CST WED DEC 11 2019

NOTE: "FAIR" INDICATES FEW OR NO CLOUDS BELOW 12,000 FEET WITH NO
SIGNIFICANT WEATHER AND/OR OBSTRUCTIONS TO VISIBILITY.

NOTE: STATIONS NOT REPORTING SKY/WEATHER AND PRESSURE ARE
PROVIDED BY RAWS AND APRS NETWORKS AND ARE NOT UNDER NATIONAL
WEATHER SERVICE QUALITY CONTROL.

...OBSERVATIONS IN AND NEAR THE EASTERN PANHANDLE OF NEBRASKA...

CITY           SKY/WX    TMP DP  RH WIND       PRES   REMARKS
PINE RIDGE     CLEAR     14  12  92 CALM      30.14S
GORDON         FOG       20  18  92 E6        30.14S VSB 1/2 WCI  12
CHADRON        CLEAR     13  11  92 NW5       30.14F WCI   5
ALLIANCE       CLEAR     17  13  84 W6        30.11S WCI   9
SIDNEY         CLEAR     16  12  84 W7        30.13F WCI   6
CRESCENT LAKE    N/A     23  19  83 CALM        N/A
$$

...OBSERVATIONS IN NORTHERN NEBRASKA AND FAR SOUTHERN SOUTH DAKOTA...

CITY           SKY/WX    TMP DP  RH WIND       PRES   REMARKS
WINNER         CLOUDY    15  11  83 CALM      30.27S
VALENTINE      CLOUDY    18  13  80 E8        30.23R WCI   8
AINSWORTH      PTCLDY    17  15  95 NE5       30.24R WCI   9
O`NEILL        FAIR      15  13  90 N7        30.28R WCI   6
THEDFORD       CLEAR     20  18  93 CALM      30.21R
BROKEN BOW     FAIR      25  18  74 N8        30.21R WCI  16
ORD            FAIR      22  19  89 N6        30.24R WCI  14
ALBION         CLEAR     21  17  84 N6        30.27R WCI  13
EWING            N/A     15  12  88 NE3         N/A
CHAMBERS         N/A     15  12  86 CALM        N/A
BUTTE            N/A     14  10  83 NE8         N/A  WCI   3
SPRINGVIEW       N/A     14  11  87 CALM        N/A
VALENTINE NWR    N/A     20  20 100 NE6         N/A  WCI  12
HALSEY           N/A     21  18  87 CALM        N/A
$$

...OBSERVATIONS IN SOUTHWEST NEBRASKA AND FAR NORTHEAST COLORADO...

CITY           SKY/WX    TMP DP  RH WIND       PRES   REMARKS
WRAY           FAIR      23  19  86 W7        30.19S WCI  15
HOLYOKE        FAIR      23  19  86 W7        30.17S WCI  15
IMPERIAL       CLEAR     21  15  78 CALM      30.18R
OGALLALA       CLEAR     22  20  93 W3        30.17R
NORTH PLATTE   CLEAR     18  14  84 CALM      30.18S
MCCOOK         CLEAR     20  17  88 SW6       30.20R WCI  12
LEXINGTON      FAIR      22  19  90 W5        30.20R WCI  15
CALLAWAY         N/A     25  21  83 NW12        N/A  WCI  14
STAPLETON        N/A     22  19  88 CALM        N/A
$$

...OBSERVATIONS IN CENTRAL LINCOLN COUNTY AREA...

CITY           SKY/WX    TMP DP  RH WIND       PRES   REMARKS
N.P. AIRPORT   CLEAR     18  14  84 CALM      30.18S
N.P. HILLCREST   N/A     25  22  87 CALM        N/A
N.P. SOUTHEAST   N/A     20  17  87 CALM        N/A
$$

...OBSERVATIONS ACROSS THE ROCKIES AND WESTERN HIGH PLAINS...

CITY           SKY/WX    TMP DP  RH WIND       PRES   REMARKS
SCOTTSBLUFF    CLEAR     22  18  85 SE5       30.12F WCI  16
KIMBALL        CLEAR     24  17  76 W8        30.13S WCI  15
CHEYENNE       CLEAR     34  11  38 W20       30.09F
DENVER         PTCLDY    30  15  53 S12       30.13F
STEAMBOAT      FAIR       4   2  91 CALM      30.25F
COPPER MTN     CLEAR     27  -4  26 S7G17     30.26S WCI  19
LEADVILLE      CLEAR     10   0  63 CALM      30.25S
ASPEN          CLEAR      8   3  80 S7        30.26F WCI  -3
GUNNISON       CLEAR     -4  -8  83 NE5       30.40S WCI -15
TELLURIDE      PTCLDY    23   9  54 SE7       30.29F WCI  15
LARAMIE        PTCLDY    29   8  41 SW10      30.12S WCI  20
CASPER         CLOUDY    31  20  63 SW23      30.03F WCI  18
SHERIDAN       MOCLDY    17  12  80 CALM      29.95F
JACKSON HOLE   MOCLDY     8   5  87 NE5       30.15F WCI   0
YELLOWSTONE      N/A     18  16  92 CALM      30.10F
$$

...OBSERVATIONS ACROSS THE NORTHERN PLAINS...

CITY           SKY/WX    TMP DP  RH WIND       PRES   REMARKS
RAPID CITY     CLOUDY    20  18  92 SE9       30.13F WCI   9
PIERRE         CLOUDY    10   3  73 E9        30.29S WCI  -3
SIOUX FALLS    CLEAR      4  -1  80 NW7       30.34R WCI  -8
ABERDEEN       CLEAR    -11 -16  78 CALM      30.36R
DICKINSON      CLOUDY     2  -2  83 SE7       30.12F WCI -11
BISMARCK       PTCLDY   -14 -19  79 E3        30.30S
FARGO          CLEAR    -16 -20  82 W9        30.36R WCI -35
$$

...OBSERVATIONS ACROSS THE CENTRAL AND SOUTHERN PLAINS...

CITY           SKY/WX    TMP DP  RH WIND       PRES   REMARKS
GRAND ISLAND   CLEAR     22  18  85 NW5       30.24R WCI  16
LINCOLN        CLEAR     23  17  78 CALM      30.30R
OMAHA          PTCLDY    24  18  77 W6        30.28R WCI  17
DES MOINES     CLOUDY    22  14  71 N3        30.28R
KANSAS CITY    CLEAR     30  19  63 SW13G26   30.30R WCI  20
WICHITA        CLEAR     23  16  74 S8        30.35S WCI  14
DODGE CITY     CLEAR     28  16  60 SW13      30.25F WCI  17
OKLAHOMA CITY  PTCLDY    25  20  81 S7        30.41S WCI  17
DALLAS         CLOUDY    36  33  89 S7        30.51R
AMARILLO       CLEAR     28  21  75 S12       30.27R WCI  18
$$



USA.gov is the U.S. government's official web portal to all federal, state and local government web resources and services.